When you browse on this site, cookies collect data to enhance your experience and personalize the content and advertising you see.
Visit our Privacy Policy to learn more. By continuing to use the site, you agree to this use of cookies and data.
  • In Hungary
  • List of Countries
  • For 7 days
  • Water Temperature
  • Weather Map
  • News
  • Weather Widgets
  • user-avatar
    Login

    Hourly Weather Koninek

    Today, 23 August, Friday

    Time Temperature Precipitation Wind Pressure Humidity
    00:00 +17°C° 0 mm 2 mps 761 mmHg 72%
    01:00 +16°C° 0 mm 2 mps 762 mmHg 73%
    02:00 +16°C° 0 mm 2 mps 761 mmHg 75%
    03:00 +16°C° 0 mm 2 mps 761 mmHg 78%
    04:00 +15°C° 0 mm 2 mps 761 mmHg 80%
    05:00 +16°C° 0 mm 2 mps 761 mmHg 77%
    06:00 +17°C° 0 mm 2 mps 762 mmHg 74%
    07:00 +18°C° 0 mm 2 mps 762 mmHg 70%
    08:00 +20°C° 0 mm 2 mps 762 mmHg 64%
    09:00 +23°C° 0 mm 2 mps 762 mmHg 57%
    10:00 +25°C° 0 mm 2 mps 762 mmHg 50%
    11:00 +25°C° 0 mm 2 mps 762 mmHg 48%
    12:00 +26°C° 0 mm 2 mps 761 mmHg 46%
    13:00 +27°C° 0 mm 3 mps 761 mmHg 43%
    14:00 +27°C° 0 mm 2 mps 761 mmHg 43%
    15:00 +27°C° 0 mm 2 mps 761 mmHg 43%
    16:00 +27°C° 0 mm 2 mps 760 mmHg 42%
    17:00 +26°C° 0 mm 1 mps 760 mmHg 48%
    18:00 +24°C° 0 mm 1 mps 760 mmHg 54%
    19:00 +22°C° 0 mm 1 mps 760 mmHg 60%
    20:00 +21°C° 0 mm 1 mps 760 mmHg 62%
    21:00 +21°C° 0 mm 1 mps 760 mmHg 64%
    22:00 +19°C° 0 mm 2 mps 760 mmHg 66%
    23:00 +19°C° 0 mm 2 mps 760 mmHg 68%

    Tomorrow, 24 August, Saturday

    Time Temperature Precipitation Wind Pressure Humidity
    00:00 +18°C° 0 mm 2 mps 760 mmHg 69%
    01:00 +18°C° 0 mm 2 mps 760 mmHg 71%
    02:00 +17°C° 0 mm 2 mps 760 mmHg 74%
    03:00 +17°C° 0 mm 2 mps 760 mmHg 77%
    04:00 +17°C° 0 mm 2 mps 760 mmHg 79%
    05:00 +18°C° 0 mm 2 mps 760 mmHg 78%
    06:00 +19°C° 0 mm 2 mps 760 mmHg 76%
    07:00 +20°C° 0 mm 2 mps 760 mmHg 75%
    08:00 +21°C° 0 mm 3 mps 760 mmHg 67%
    09:00 +24°C° 0 mm 3 mps 760 mmHg 60%
    10:00 +26°C° 0 mm 4 mps 760 mmHg 53%
    11:00 +27°C° 0 mm 4 mps 760 mmHg 50%
    12:00 +27°C° 0 mm 4 mps 759 mmHg 47%
    13:00 +28°C° 0 mm 4 mps 759 mmHg 45%
    14:00 +28°C° 0 mm 4 mps 759 mmHg 45%
    15:00 +28°C° 0 mm 4 mps 759 mmHg 45%
    16:00 +28°C° 0 mm 4 mps 758 mmHg 45%
    17:00 +26°C° 0 mm 4 mps 758 mmHg 50%
    18:00 +25°C° 0 mm 4 mps 758 mmHg 55%
    19:00 +22°C° 0 mm 3 mps 758 mmHg 60%
    20:00 +22°C° 0 mm 3 mps 758 mmHg 61%
    21:00 +21°C° 0 mm 3 mps 758 mmHg 61%
    22:00 +20°C° 0 mm 3 mps 758 mmHg 62%
    23:00 +20°C° 0 mm 3 mps 758 mmHg 62%

    Day after tomorrow, 25 August, Sunday

    Time Temperature Precipitation Wind Pressure Humidity
    00:00 +19°C° 0 mm 4 mps 758 mmHg 63%
    01:00 +19°C° 0 mm 4 mps 758 mmHg 64%
    02:00 +19°C° 0 mm 4 mps 758 mmHg 64%
    03:00 +18°C° 0 mm 4 mps 758 mmHg 65%
    04:00 +18°C° 0 mm 4 mps 758 mmHg 66%
    05:00 +19°C° 0 mm 4 mps 758 mmHg 65%
    06:00 +19°C° 0 mm 4 mps 758 mmHg 65%
    07:00 +20°C° 0 mm 5 mps 758 mmHg 64%
    08:00 +21°C° 0 mm 5 mps 758 mmHg 59%
    09:00 +23°C° 0 mm 5 mps 758 mmHg 54%
    10:00 +26°C° 0 mm 6 mps 758 mmHg 49%
    11:00 +26°C° 0 mm 6 mps 757 mmHg 47%
    12:00 +27°C° 0 mm 5 mps 757 mmHg 44%
    13:00 +28°C° 0 mm 5 mps 757 mmHg 42%
    14:00 +28°C° 0 mm 5 mps 757 mmHg 43%
    15:00 +28°C° 0 mm 5 mps 756 mmHg 44%
    16:00 +28°C° 0 mm 5 mps 756 mmHg 45%
    17:00 +26°C° 0 mm 4 mps 756 mmHg 50%
    18:00 +25°C° 0 mm 4 mps 756 mmHg 54%
    19:00 +24°C° 0 mm 3 mps 756 mmHg 58%
    20:00 +22°C° 0 mm 4 mps 756 mmHg 59%
    21:00 +22°C° 0 mm 4 mps 756 mmHg 59%
    22:00 +21°C° 0 mm 4 mps 757 mmHg 60%
    23:00 +21°C° 0 mm 4 mps 756 mmHg 62%

    26 August, Monday

    Time Temperature Precipitation Wind Pressure Humidity
    00:00 +20°C° 0 mm 3 mps 756 mmHg 65%
    01:00 +20°C° 0 mm 3 mps 756 mmHg 68%
    02:00 +19°C° 0 mm 3 mps 756 mmHg 71%
    03:00 +19°C° 0 mm 3 mps 756 mmHg 74%
    04:00 +18°C° 0 mm 3 mps 756 mmHg 77%
    05:00 +19°C° 0 mm 3 mps 756 mmHg 75%
    06:00 +20°C° 0 mm 3 mps 756 mmHg 74%
    07:00 +21°C° 0 mm 3 mps 756 mmHg 72%
    08:00 +22°C° 0 mm 3 mps 756 mmHg 66%
    09:00 +25°C° 0 mm 4 mps 756 mmHg 61%
    10:00 +27°C° 0 mm 4 mps 756 mmHg 55%
    11:00 +28°C° 0 mm 4 mps 756 mmHg 52%
    12:00 +29°C° 0 mm 4 mps 756 mmHg 48%
    13:00 +30°C° 0 mm 4 mps 756 mmHg 44%
    14:00 +30°C° 0 mm 3 mps 755 mmHg 44%
    15:00 +30°C° 0 mm 3 mps 755 mmHg 45%
    16:00 +30°C° 0 mm 3 mps 755 mmHg 45%
    17:00 +28°C° 0 mm 3 mps 755 mmHg 50%
    18:00 +27°C° 0 mm 3 mps 755 mmHg 56%
    19:00 +25°C° 0 mm 3 mps 755 mmHg 62%
    20:00 +24°C° 0 mm 3 mps 755 mmHg 64%
    21:00 +22°C° 0 mm 3 mps 755 mmHg 66%
    22:00 +21°C° 0 mm 3 mps 755 mmHg 68%
    23:00 +21°C° 0 mm 3 mps 755 mmHg 71%

    27 August, Tuesday

    Time Temperature Precipitation Wind Pressure Humidity
    00:00 +20°C° 0 mm 2 mps 755 mmHg 73%
    01:00 +20°C° 0 mm 2 mps 755 mmHg 75%
    02:00 +19°C° 0 mm 2 mps 755 mmHg 77%
    03:00 +19°C° 0 mm 2 mps 755 mmHg 80%
    04:00 +19°C° 0 mm 2 mps 755 mmHg 82%
    05:00 +20°C° 0 mm 3 mps 755 mmHg 80%
    06:00 +21°C° 0 mm 3 mps 755 mmHg 78%
    07:00 +22°C° 0 mm 3 mps 755 mmHg 76%
    08:00 +25°C° 0 mm 3 mps 755 mmHg 69%
    09:00 +27°C° 0 mm 3 mps 755 mmHg 63%
    10:00 +29°C° 0 mm 4 mps 755 mmHg 56%
    11:00 +30°C° 0 mm 4 mps 755 mmHg 53%
    12:00 +33°C° 0 mm 4 mps 755 mmHg 49%
    13:00 +34°C° 0 mm 4 mps 755 mmHg 45%
    14:00 +34°C° 0 mm 4 mps 754 mmHg 44%
    15:00 +34°C° 0 mm 4 mps 754 mmHg 43%
    16:00 +34°C° 0 mm 3 mps 754 mmHg 42%
    17:00 +31°C° 0 mm 3 mps 753 mmHg 47%
    18:00 +30°C° 0 mm 3 mps 753 mmHg 52%
    19:00 +28°C° 0 mm 3 mps 753 mmHg 57%
    20:00 +27°C° 0.2 mm 3 mps 753 mmHg 59%
    21:00 +26°C° 0.2 mm 3 mps 754 mmHg 61%
    22:00 +26°C° 0.2 mm 4 mps 754 mmHg 63%
    23:00 +25°C° 0.6 mm 4 mps 754 mmHg 67%

    28 August, Wednesday

    Time Temperature Precipitation Wind Pressure Humidity
    00:00 +24°C° 0.6 mm 3 mps 754 mmHg 72%
    01:00 +22°C° 0.6 mm 3 mps 753 mmHg 76%
    02:00 +22°C° 0.2 mm 3 mps 753 mmHg 78%
    03:00 +22°C° 0.2 mm 3 mps 753 mmHg 80%
    04:00 +22°C° 0.2 mm 3 mps 753 mmHg 82%
    05:00 +22°C° 0 mm 3 mps 753 mmHg 79%
    06:00 +23°C° 0 mm 4 mps 753 mmHg 76%
    07:00 +25°C° 0 mm 4 mps 753 mmHg 73%
    08:00 +27°C° 0 mm 4 mps 753 mmHg 66%
    09:00 +29°C° 0 mm 4 mps 753 mmHg 58%
    10:00 +32°C° 0 mm 4 mps 753 mmHg 51%
    11:00 +34°C° 0 mm 5 mps 753 mmHg 45%
    12:00 +35°C° 0 mm 5 mps 752 mmHg 39%
    13:00 +36°C° 0 mm 5 mps 752 mmHg 33%
    14:00 +36°C° 0 mm 5 mps 752 mmHg 34%
    15:00 +36°C° 0 mm 5 mps 751 mmHg 35%
    16:00 +35°C° 0 mm 5 mps 751 mmHg 36%
    17:00 +33°C° 0.1 mm 4 mps 751 mmHg 42%
    18:00 +30°C° 0.1 mm 3 mps 751 mmHg 49%
    19:00 +28°C° 0.1 mm 2 mps 751 mmHg 55%
    20:00 +28°C° 0.2 mm 2 mps 752 mmHg 59%
    21:00 +27°C° 0.2 mm 2 mps 752 mmHg 63%
    22:00 +26°C° 0.2 mm 2 mps 752 mmHg 67%
    23:00 +25°C° 0.1 mm 3 mps 753 mmHg 72%
    Show more